Weather Roundup
Issued by NWS

Home | Current Version | Previous Version | Graphics & Text | Print | Product List | Glossary Off
Versions: 1 2 3 4 5 6 7 8 9 10 11 12 13 14 15 16 17 18 19 20 21 22 23 24 25 26 27 28 29 30 31 32 33 34 35 36 37 38 39 40 41 42 43 44 45 46 47 48 49 50

000
NZUS93 KARX 202059
HRRWXR

CURRENT HOURLY OBSERVATIONS ACROSS
MUCH OF THE UPPER MISSISSIPPI VALLEY
NATIONAL WEATHER SERVICE LA CROSSE WI
400 PM CDT FRI OCT 20 2017


...SOUTHEAST MINNESOTA...


CITY           SKY/WX    TMP DP  RH WIND       PRES   REMARKS
ROCHESTER      MOSUNNY   74  45  35 S18G29    29.85F
ROCHESTER/MAYO FAIR      74  42  32 SE15G30   29.84F
WINONA         CLOUDY    77  39  25 S7G18     29.86F
AUSTIN         PTSUNNY   73  43  33 S17G24    29.82F
ALBERT LEA     NOT AVBL
DODGE CENTER   PTSUNNY   75  37  25 S25G32    29.82F
PRESTON        MOSUNNY   73  44  36 S17G25    29.88S
OWATONNA       PTSUNNY   75  48  38 S21G26    29.79F
FARIBAULT      MOSUNNY   75  46  35 SE14G23   29.78F
$$

...ELSEWHERE IN MINNESOTA...


CITY           SKY/WX    TMP DP  RH WIND       PRES   REMARKS
MINNEAPOLIS    PTSUNNY   77  49  37 S20G25    29.75F
INTNL FALLS    SUNNY     78  43  28 S13G24    29.58F
DULUTH         MOSUNNY   73  47  39 SW20G30   29.74S
RED WING       MOSUNNY   77  39  25 S12       29.79F
REDWOOD FALLS  SUNNY     78  51  38 S29G37    29.65F
MANKATO        MOSUNNY   77  49  37 S18G26    29.74F
WORTHINGTON    SUNNY     75  53  46 S22G36    29.69F
FAIRMONT       SUNNY     75  50  41 S30G38    29.72F
$$

...SOUTHWEST WISCONSIN...


CITY           SKY/WX    TMP DP  RH WIND       PRES   REMARKS
LA CROSSE      CLOUDY    76  50  40 S14       29.88F
PRAIRIE DU CHI MOSUNNY   76  42  30 S9        29.93F
BOSCOBEL       MOSUNNY   77  49  37 S8        29.94F
LONE ROCK      NOT AVBL
PLATTEVILLE    MOSUNNY   74  51  43 S14       29.98F
FORT MC COY    SUNNY     76  45  33 S14       29.92F
MAUSTON-NEW LI CLEAR     75  48  38 SE9       29.93F
VIROQUA        FAIR      74  48  39 S13       29.93F
WIS DELLS      SUNNY     74  44  33 S14       29.97F
$$

...ELSEWHERE IN WISCONSIN...


CITY           SKY/WX    TMP DP  RH WIND       PRES   REMARKS
MILWAUKEE      PTSUNNY   78  51  38 S10       30.03F
MADISON        PTSUNNY   75  46  35 S9        29.99F
GREEN BAY      MOSUNNY   74  52  46 S12       29.97F
EAU CLAIRE     MOSUNNY   76  45  33 S14G23    29.84F
BLACK RVR FLS  FAIR      78  38  23 S10G20    29.90F
MEDFORD        MOSUNNY   74  45  35 S13G21    29.91F
WAUSAU         MOSUNNY   73  44  35 S10       29.92F
WIS RAPIDS     SUNNY     76  48  37 SW8       29.94F
MARSHFIELD     MOSUNNY   75  41  29 S17       29.91F
RICE LAKE      MOSUNNY   74  44  33 S15G24    29.83F
$$

...NORTHEAST IOWA...


CITY           SKY/WX    TMP DP  RH WIND       PRES   REMARKS
WATERLOO       CLOUDY    73  47  39 S20G29    29.89F
DUBUQUE        MOSUNNY   74  48  39 S14G22    29.97F
DECORAH        MOSUNNY   73  46  38 S14G24    29.90S
MASON CITY     SUNNY     74  49  41 S24G32    29.84F
CHARLES CITY   CLOUDY    75  45  33 S21G32    29.88F
OELWEIN        CLOUDY    73  48  40 S23       29.92F
$$

...ELSEWHERE IN IOWA...


CITY           SKY/WX    TMP DP  RH WIND       PRES   REMARKS
DES MOINES     PTSUNNY   73  51  46 S21G35    29.86F
IOWA CITY      SUNNY     76  47  35 S16G25    29.97F
FORT DODGE     SUNNY     73  51  46 S22G30    29.80F
MARSHALLTOWN   SUNNY     73  49  42 S23G30    29.88F
CEDAR RAPIDS   SUNNY     75  48  38 S16G22    29.94F
$$

...NORTHERN ILLINOIS...


CITY           SKY/WX    TMP DP  RH WIND       PRES   REMARKS
CHICAGO-OHARE  PTSUNNY   78  50  37 S12       30.06F
CHICAGO-MIDWAY PTSUNNY   80  50  34 S14       30.06F
MOLINE         PTSUNNY   77  47  34 S14G24    29.99S
ROCKFORD       CLOUDY    76  47  35 S15       30.03F
PEORIA         CLOUDY    78  46  32 S16       30.05S
$$

NOTE: "FAIR" INDICATES FEW OR NO CLOUDS BELOW 12,000 FEET WITH NO
SIGNIFICANT WEATHER AND/OR OBSTRUCTIONS TO VISIBILITY. WIND
SPEEDS ARE IN MILES-PER-HOUR.




USA.gov is the U.S. government's official web portal to all federal, state and local government web resources and services.